Buffalo, NY

11:19 AM EST on December 16, 2017 (GMT -0500)
Buffalo Niagara International

Weather History for KBUF - January, 2013

Change the Weather History Date:

Sunday, January 20, 2013

  Actual Average Record
Temperature  
Mean Temperature 33 °F 24 °F  
Max Temperature 48 °F 31 °F 62 °F (1951)
Min Temperature 18 °F 18 °F -5 °F (1983)
Degree Days  
Heating Degree Days 32 41  
Month to date heating degree days 627 798  
Since 1 July heating degree days 2788 3213  
Cooling Degree Days 0 0  
Month to date cooling degree days 0 0  
Year to date cooling degree days 0 0  
Moisture  
Dew Point 16 °F    
Average Humidity 58    
Maximum Humidity 73    
Minimum Humidity 42    
Precipitation  
Precipitation T in 0.10 in 1.20 in (1995)
Month to date precipitation 0.64 2.16  
Year to date precipitation 0.64 2.16  
Snow  
Snow 0.10 in 0.80 in 8.80 in (1978)
Month to date snowfall 2.4 17.1  
Since 1 July snowfall 24.4 53.3  
Snow Depth 0.00 in    
Sea Level Pressure  
Sea Level Pressure 29.87 in    
Wind  
Wind Speed 22 mph (West)    
Max Wind Speed 33 mph    
Max Gust Speed 61 mph    
Visibility 8 miles    
Events Snow    
T = Trace of Precipitation, MM = Missing Value Source: NWS Daily Summary

Daily Weather History Graph

Daily Weather History Graph

Search for Another Location

Airport or City:

Trip Planner

Search our weather history database for the weather conditions in past years. The results will help you decide how hot, cold, wet, or windy it might be!

Date:

Astronomy

Jan. 20, 2013 Rise Set
Actual Time 7:40 AM EST 5:12 PM EST
Civil Twilight 7:09 AM EST 5:43 PM EST
Nautical Twilight 6:34 AM EST 6:18 PM EST
Astronomical Twilight 6:00 AM EST 6:51 PM EST
Moon 12:12 PM EST (1/20) 2:09 AM EST (1/20)
Length of Visible Light 10h 34m
Length of Day
9h 32m
Waxing Gibbous, 66% of the Moon is Illuminated
Jan 20
Waxing Gibbous
Jan 26
Full
Feb 3
Last Quarter
Feb 10
New
Feb 17
First Quarter

Hourly Weather History & Observations

Time (EST) Temp. Windchill Dew Point Humidity Pressure Visibility Wind Dir Wind Speed Gust Speed Precip Events Conditions
12:54 AM 48.0 °F - 27.0 °F 44% 29.54 in 10.0 mi SW 27.6 mph 35.7 mph N/A   Overcast
1:54 AM 46.9 °F - 28.0 °F 48% 29.51 in 10.0 mi SW 26.5 mph 38.0 mph N/A   Overcast
2:54 AM 45.0 °F 36.6 °F 30.0 °F 56% 29.50 in 10.0 mi SW 21.9 mph 36.8 mph N/A   Overcast
3:54 AM 45.0 °F 34.4 °F 33.1 °F 63% 29.49 in 10.0 mi SW 35.7 mph 55.2 mph N/A   Overcast
4:54 AM 43.0 °F 31.7 °F 32.0 °F 65% 29.48 in 10.0 mi WSW 35.7 mph 61.0 mph N/A   Overcast
5:54 AM 39.9 °F 28.2 °F 30.0 °F 68% 29.53 in 10.0 mi WSW 31.1 mph 48.3 mph N/A   Mostly Cloudy
6:54 AM 37.4 °F 25.4 °F 21.2 °F 52% 29.58 in 10.0 mi West 27.6 mph 48.3 mph N/A Snow Light Snow
7:54 AM 30.9 °F 16.2 °F 18.0 °F 59% 29.71 in 10.0 mi West 29.9 mph 40.3 mph 0.00 in Snow Light Snow
8:54 AM 28.9 °F 14.0 °F 16.0 °F 58% 29.79 in 9.0 mi West 27.6 mph 39.1 mph 0.00 in Snow Light Snow
9:54 AM 27.0 °F 11.3 °F 10.9 °F 51% 29.85 in 10.0 mi West 27.6 mph 42.6 mph 0.00 in   Mostly Cloudy
10:54 AM 26.1 °F 10.7 °F 8.1 °F 47% 29.91 in 10.0 mi West 25.3 mph 39.1 mph N/A   Mostly Cloudy
11:54 AM 25.0 °F 10.6 °F 8.1 °F 49% 29.91 in 10.0 mi West 20.7 mph 26.5 mph 0.00 in   Mostly Cloudy
12:54 PM 25.0 °F 9.2 °F 8.1 °F 49% 29.94 in 10.0 mi West 25.3 mph 38.0 mph N/A   Mostly Cloudy
1:54 PM 24.1 °F 9.8 °F 10.0 °F 55% 29.96 in 9.0 mi WSW 19.6 mph 33.4 mph 0.00 in Snow Light Snow
2:54 PM 24.1 °F 9.8 °F 10.9 °F 57% 29.98 in 10.0 mi WSW 19.6 mph 25.3 mph 0.00 in   Overcast
3:54 PM 24.1 °F 11.5 °F 12.0 °F 60% 30.00 in 9.0 mi WNW 15.0 mph 26.5 mph 0.00 in   Overcast
4:22 PM 23.0 °F 10.6 °F 12.2 °F 63% 30.00 in 2.0 mi West 13.8 mph - 0.00 in Snow Light Snow
4:34 PM 21.2 °F 6.8 °F 15.8 °F 80% 30.00 in 4.0 mi West 17.3 mph 26.5 mph 0.00 in Snow Light Snow
4:54 PM 21.9 °F 8.2 °F 14.0 °F 72% 30.03 in 4.0 mi West 16.1 mph 26.5 mph 0.00 in Snow Light Snow
5:54 PM 21.9 °F 8.7 °F 10.9 °F 63% 30.06 in 7.0 mi WNW 15.0 mph 21.9 mph 0.00 in Snow Light Snow
5:59 PM 21.2 °F 7.3 °F 14.0 °F 74% 30.03 in 2.0 mi WNW 16.1 mph - 0.00 in Snow Light Snow
6:09 PM 21.2 °F 9.5 °F 15.8 °F 80% 30.04 in 4.0 mi West 11.5 mph - 0.00 in Snow Light Snow
6:54 PM 21.0 °F 9.3 °F 14.0 °F 74% 30.08 in 7.0 mi West 11.5 mph 20.7 mph 0.00 in Snow Light Snow
7:54 PM 19.9 °F 7.9 °F 12.0 °F 71% 30.10 in 7.0 mi West 11.5 mph 20.7 mph 0.00 in Snow Light Snow
8:54 PM 19.9 °F 7.3 °F 9.0 °F 62% 30.10 in 9.0 mi WNW 12.7 mph - 0.00 in   Mostly Cloudy
9:54 PM 19.9 °F 5.7 °F 9.0 °F 62% 30.11 in 10.0 mi West 16.1 mph - N/A   Mostly Cloudy
10:54 PM 19.0 °F 5.6 °F 8.1 °F 62% 30.11 in 10.0 mi West 13.8 mph 20.7 mph N/A   Scattered Clouds
11:54 PM 18.0 °F 4.8 °F 8.1 °F 65% 30.10 in 10.0 mi West 12.7 mph - N/A   Scattered Clouds